#timestamp,LO_Frequency,Hit,StdDev 
1621472415.1,286047000.4,N
1621472435.9,286046999.8,N
1621472455.7,286047000.4,N
1621472475.5,286047000.7,N
1621472495.4,286046996.7,N
1621472515.2,286046995.1,Y
1621472535.1,286046997.0,P
1621472536.0,286046997.0,N
1621472555.8,286046998.2,N
1621472575.6,286047000.4,N
1621472595.5,286047004.2,N
1621472615.3,286046998.2,N
1621472635.1,286046997.5,N
1621472655.9,286046994.9,N
1621472675.7,286046997.5,N
1621472695.6,286046997.5,N
1621472715.4,286047001.0,N
1621472735.2,286047002.8,N
1621472755.1,286046999.1,N
1621472756.0,286046999.1,N
1621472775.8,286046997.0,N
1621472795.7,286047000.8,N
1621472815.5,286046998.5,N
1621472835.3,286046998.8,N
1621472855.2,286046998.5,N
1621472875.0,286046996.9,N
1621472875.9,286046996.9,N
1621472895.7,286046999.6,N
1621472915.6,286046997.7,N
1621472935.4,286047000.6,N
1621472955.3,286047002.7,N
1621472975.1,286047000.4,N
1621472995.8,286046998.1,N
1621473015.7,286047004.0,N
1621473035.5,286047003.7,N
1621473055.4,286047003.8,N
1621473075.2,286047003.9,N
1621473095.0,286047001.6,N
1621473095.9,286047001.6,N
1621473115.8,286047003.9,N
1621473135.6,286047002.3,N
1621473155.4,286046998.1,N
1621473175.3,286047000.7,N
1621473195.1,286046998.6,N
1621473215.9,286046998.9,N
1621473235.7,286046999.2,N
1621473255.5,286047001.2,N
1621473275.4,286046998.9,N
1621473295.2,286046996.6,N
1621473315.0,286046996.5,N
1621473316.0,286046996.5,N
1621473335.8,286046998.9,N
1621473355.6,286046998.4,N
1621473375.5,286047001.2,N
1621473395.3,286047000.9,N
1621473415.2,286047004.3,N
1621473435.9,286047001.6,N
1621473455.7,286047002.7,N
1621473475.6,286047002.1,N
1621473495.4,286047002.0,N
1621473515.2,286047003.4,N
1621473535.1,286047005.4,N
1621473536.0,286047005.4,N
1621473555.8,286047006.0,N
1621473575.7,286047003.3,N
1621473595.5,286047002.0,N
1621473615.3,286047000.4,N
1621473635.2,286046998.5,N
1621473655.0,286046999.5,N
1621473655.9,286046999.5,N
1621473675.7,286046999.2,N
1621473695.6,286046998.7,N
1621473715.4,286046998.9,N
1621473735.3,286046999.1,N
1621473755.1,286046997.7,N
1621473756.0,286046997.7,N
1621473775.8,286046997.8,N
1621473795.7,286046997.0,N
1621473815.5,286046994.9,N
1621473835.3,286046995.2,N
1621473855.2,286046995.8,N
1621473875.0,286046996.1,N
1621473875.9,286046996.1,N
1621473895.8,286046996.2,N
1621473915.6,286046997.6,N
1621473935.4,286046999.4,N
1621473955.3,286047000.8,N
1621473975.1,286046998.7,N
1621473995.9,286046999.4,N
1621474015.7,286046997.5,N
1621474035.5,286046994.9,N
1621474055.4,286046997.3,N
1621474075.2,286046997.7,N
1621474095.0,286046995.7,N
1621474095.9,286046995.7,N
1621474115.8,286046995.6,N
1621474135.6,286046997.8,N
1621474155.5,286046993.8,Y
1621474175.3,286046997.9,P
1621474195.1,286046995.2,P
1621474215.9,286046996.7,N
1621474235.7,286046999.3,N
1621474255.5,286046999.4,N
1621474275.4,286046997.2,N
1621474295.2,286046994.9,Y
1621474315.1,286047000.7,P
1621474316.0,286047000.7,N
1621474335.8,286047002.4,N
1621474355.6,286047004.0,N
1621474375.5,286047000.5,N
1621474395.3,286047002.1,N
1621474415.2,286047002.3,N
1621474435.9,286046998.1,N
1621474455.7,286046998.3,N
1621474475.6,286046999.8,N
1621474495.4,286047000.5,N
1621474515.2,286047002.7,N
1621474535.1,286047001.6,N
1621474536.0,286047001.6,N
1621474555.8,286047001.3,N
1621474575.7,286047004.3,N
1621474595.5,286047005.8,Y
1621474615.3,286047002.2,P
1621474635.2,286047002.7,P
1621474655.0,286047001.3,N
1621474655.9,286047001.3,N
1621474675.8,286047002.3,Y
1621474695.6,286047002.0,P
1621474715.4,286047000.0,N
1621474735.3,286046999.1,N
1621474755.1,286046998.6,N
1621474775.9,286047001.9,N
1621474795.7,286047004.2,Y
1621474815.5,286047003.2,P
1621474835.4,286046999.9,N
1621474855.2,286046999.1,N
1621474875.1,286046997.2,N
1621474876.0,286046997.2,N
1621474895.8,286046998.7,N
1621474915.6,286047002.2,N
1621474935.5,286047004.3,N
1621474955.3,286047005.6,N
1621474975.2,286047005.8,N
1621474995.9,286047002.0,N
1621475015.7,286047001.6,N
1621475035.6,286047005.4,N
1621475055.4,286047005.8,N
1621475075.2,286047003.4,N
1621475095.1,286047001.9,N
1621475096.0,286047001.9,N
1621475115.8,286047003.1,N
1621475135.7,286047004.0,N
1621475155.5,286047001.5,N
1621475175.3,286047002.5,N
1621475195.2,286046999.9,N
1621475215.0,286047003.8,N
1621475215.9,286047003.8,N
1621475235.8,286047004.2,N
1621475255.6,286047003.6,N
1621475275.4,286047002.9,N
1621475295.3,286047002.9,N
1621475315.1,286047004.0,N
1621475335.9,286047002.6,N
1621475355.7,286046999.8,N
1621475375.5,286047000.3,N
1621475395.4,286047002.7,N
1621475415.2,286047001.8,N
1621475435.1,286047001.6,N
1621475436.0,286047001.6,N
1621475455.8,286047000.0,N
1621475475.6,286046998.7,N
1621475495.5,286046998.5,N
1621475515.3,286046998.7,N
1621475535.1,286046998.8,N
1621475555.9,286047000.4,N
1621475575.7,286047002.3,N
1621475595.6,286047006.0,Y
1621475615.4,286047001.4,P
1621475635.3,286047000.1,N
1621475655.1,286046998.6,N
1621475656.0,286046998.6,N
1621475675.8,286046999.4,N
1621475695.7,286046996.9,N
1621475715.5,286046996.8,N
1621475735.4,286046997.6,N
1621475755.2,286047001.1,N
1621475775.0,286047000.1,N
1621475775.9,286047000.1,N
1621475795.8,286047002.6,N
1621475815.6,286047004.3,N
1621475835.5,286047003.8,N
1621475855.3,286047001.6,N
1621475875.1,286047003.2,N
1621475895.9,286047001.5,N
1621475915.7,286047002.6,N
1621475935.5,286047000.4,N
1621475955.4,286047002.3,N
1621475975.2,286047003.5,N
1621475995.0,286047005.5,N
1621475996.0,286047005.5,N
